Flag for Canada Weather past 2 weeks in Gatineau, Quebec, Canada

Now
-6 °F

Clear.


Feels Like: -25 °F
Forecast: -12 / 4 °F
Wind: 13 mph from Northwest

Location: Ottawa Int'L. Ont.

Current Time: Jan 31, 2015 at 2:18:45 AM

Latest Report: Jan 31, 2015 at 1:00 AM


Visibility: 15 mi

Pressure: 30.30 "Hg

Humidity: 70%

Dew point: -13 °F

Location of GatineauLocation

Historic Weather in Gatineau — Graph

°F

Gatineau temperature yesterday

Maximum temperature yesterday: 21 °F (at 4:00 AM)
Minimum temperature yesterday: -2 °F (at 11:00 PM)
Average temperature yesterday: 12 °F

Past Weeks' High & Low Weather Summary

 TemperatureHumidityPressure
High39 °F (Jan 18, 2:00 PM)100% (Jan 19, 12:00 AM)30.43 "Hg (Jan 19, 12:00 AM)
Low-15 °F (Jan 17, 6:00 AM)41% (Jan 28, 1:00 PM)29.34 "Hg (Jan 24, 11:00 PM)
Average11 °F72%30.01 "Hg
* Reported Jan 16 1:00 AM — Jan 31 1:00 AM, Gatineau, Weather by CustomWeather, © 2014

Note: Actual official high and low records may vary slightly from our data, if they occured in-between our weather recording intervals... More about our weather records

Advertising

Gatineau weather history for previous 24 hours

 ConditionsComfort  
Time TempWeatherWind HumidityBarometerVisibility
1:00 AM
Jan 31
-6 °FClear.13 mph70%30.30 "Hg15 mi
12:00 AM-4 °FClear.16 mph65%30.29 "Hg15 mi
11:00 PM
Jan 30
-2 °FClear.17 mph65%30.28 "Hg15 mi
10:00 PM0 °FClear.18 mph65%30.28 "Hg15 mi
9:00 PM1 °FClear.23 mph65%30.27 "Hg15 mi
8:00 PM1 °FPassing clouds.21 mph65%30.25 "Hg15 mi
7:00 PM3 °FPassing clouds.15 mph66%30.23 "Hg15 mi
6:00 PM7 °FLow level haze.15 mph61%30.20 "Hg15 mi
5:00 PM9 °FLow level haze.17 mph56%30.17 "Hg15 mi
4:00 PM10 °FLow level haze.21 mph56%30.14 "Hg15 mi
3:00 PM10 °FLow level haze.17 mph61%30.11 "Hg15 mi
2:00 PM12 °FScattered clouds.18 mph57%30.09 "Hg15 mi
1:00 PM10 °FPartly sunny.25 mph67%30.08 "Hg15 mi
12:00 PM10 °FPartly sunny.20 mph67%30.08 "Hg15 mi
11:00 AM10 °FPartly sunny.24 mph67%30.07 "Hg15 mi
10:00 AM10 °FPartly sunny.20 mph67%30.05 "Hg15 mi
9:00 AM12 °FLight snow. Partly sunny.23 mph73%30.02 "Hg15 mi
8:00 AM14 °FLight snow. Overcast.22 mph79%29.97 "Hg15 mi
7:00 AM19 °FLight snow. Overcast.20 mph79%29.91 "Hg15 mi
6:00 AM21 °FLight snow. Mostly cloudy.16 mph86%29.88 "Hg15 mi
5:00 AM21 °FLight snow. Overcast.18 mph86%29.85 "Hg6 mi
4:00 AM21 °FLight snow. Overcast.12 mph93%29.82 "Hg15 mi
3:00 AM19 °FLight snow. Ice fog.8 mph93%29.80 "Hg1 mi
2:00 AM19 °FLight snow. Ice fog.9 mph93%29.79 "Hg1 mi
Weather by CustomWeather, © 2014

See weather overviewHow to use our weather pages